This demonstration page uses our WeatherBlox Daily Observations layout. Learn more.

Left ArrowRight Arrow

Hourly Observations for May 27, 2017

Temp ( °F °C ) Dew Point ( °F °C ) Humidity (%) Winds ( mph kmh ) Pressure ( in mb ) Visibility ( mi km ) Precip ( " mm )
12:54 am 00:54 Clear 63 17.2 51 10.6 65 65 N 6 9 29.87 1012 10 16.0934 0 0
1:54 am 01:54 Clear 59 15 50 10 72 72 N 6 9 29.87 1012 10 16.0934 0 0
2:54 am 02:54 Partly Cloudy 61 16.1 48 8.9 63 63 N 6 9 29.87 1011 10 16.0934 0 0
3:54 am 03:54 Mostly Clear 59 15 48 8.9 67 67 N 6 9 29.85 1011 10 16.0934 0 0
4:54 am 04:54 Cloudy 61 16.1 47 8.3 60 60 NNW 5 7 29.85 1011 10 16.0934 0 0
5:54 am 05:54 Partly Cloudy 62 16.7 47 8.3 58 58 NE 3 6 29.85 1011 10 16.0934 0 0
6:54 am 06:54 Cloudy with Light Thunderstorms 59 15 52 11.1 78 78 WNW 9 15 29.87 1012 5 8.0467 0.01 0.254
7:05 am 07:05 Cloudy with Heavy Thunderstorms 57 13.9 52 11.1 83 83 N 10 17 29.91 1013 2 3.21868 0.16 4.064
7:14 am 07:14 Cloudy with Light Thunderstorms 58 14.4 52 11.1 81 81 undefined N/A 29.97 1015 5 8.0467 0.19 4.826
7:54 am 07:54 Cloudy with Nearby Thunderstorms 57 13.9 53 11.7 87 87 NW 5 7 29.94 1014 5 8.0467 0.29 7.366
8:01 am 08:01 Cloudy with Rain 57 13.9 53 11.7 87 87 NNW 8 13 29.94 1014 2.5 4.02335 0.01 0.254
8:24 am 08:24 Cloudy with Light Rain 56 13.3 54 12.2 93 93 N 10 17 29.91 1013 5 8.0467 0.1 2.54
8:54 am 08:54 Cloudy with Light Rain 57 13.9 54 12.2 90 90 NE 10 17 29.87 1012 10 16.0934 0.12 3.048
9:54 am 09:54 Sunny 61 16.1 54 12.2 78 78 NNW 10 17 29.87 1012 10 16.0934 0 0.0254
10:54 am 10:54 Sunny 65 18.3 54 12.2 68 68 NE 12 19 29.87 1012 10 16.0934 0 0
11:54 am 11:54 Sunny 68 20 55 12.8 63 63 E 9 15 29.88 1012 10 16.0934 0 0
12:54 pm 12:54 Sunny 69 20.6 57 13.9 66 66 ENE 13 20 29.87 1011 10 16.0934 0 0
1:54 pm 13:54 Mostly Sunny 70 21.1 59 15 68 68 ENE 9 15 29.86 1011 10 16.0934 0 0
2:54 pm 14:54 Sunny 73 22.8 58 14.4 59 59 NNE 8 13 29.83 1010 10 16.0934 0 0
3:54 pm 15:54 Sunny 76 24.4 57 13.9 52 52 NNE 13 20 29.83 1010 10 16.0934 0 0
4:54 pm 16:54 Mostly Sunny 77 25 53 11.7 43 43 NE 14 22 29.85 1011 10 16.0934 0 0
5:54 pm 17:54 Mostly Sunny 75 23.9 53 11.7 46 46 ENE 12 19 29.86 1011 10 16.0934 0 0
6:54 pm 18:54 Cloudy 72 22.2 57 13.9 59 59 E 10 17 29.88 1012 10 16.0934 0 0
7:54 pm 19:54 Sunny 69 20.6 58 14.4 68 68 E 8 13 29.89 1012 10 16.0934 0 0
8:54 pm 20:54 Clear 65 18.3 58 14.4 78 78 NNE 5 7 29.9 1013 10 16.0934 0 0
9:54 pm 21:54 Clear 66 18.9 58 14.4 75 75 NNW 6 9 29.91 1013 10 16.0934 0 0
10:54 pm 22:54 Clear 64 17.8 58 14.4 81 81 NNW 7 11 29.92 1013 10 16.0934 0 0
11:54 pm 23:54 Clear 63 17.2 53 11.7 70 70 NNW 7 11 29.94 1014 10 16.0934 0 0

Powered by AerisWeather